Lovelock, NV

12:09 AM PDT on May 26, 2018 (GMT -0700)
Derby

Weather History for KLOL - April, 2014

Change the Weather History Date:

Friday, April 4, 2014

  Actual Average Record
Temperature  
Mean Temperature 42 °F -  
Max Temperature 57 °F 64 °F 82 °F (1959)
Min Temperature 28 °F 31 °F 12 °F (2009)
Degree Days  
Heating Degree Days 22    
Moisture  
Dew Point 23 °F    
Average Humidity 46    
Maximum Humidity 72    
Minimum Humidity 23    
Precipitation  
Precipitation 0.00 in - - ()
Sea Level Pressure  
Sea Level Pressure 29.91 in    
Wind  
Wind Speed 5 mph (North)    
Max Wind Speed 18 mph    
Max Gust Speed 17 mph    
Visibility 10 miles    
Events      
Averages and records for this station are not official NWS values.
T = Trace of Precipitation, MM = Missing Value Source: NWS Daily Summary

Daily Weather History Graph

Daily Weather History Graph

Search for Another Location

Airport or City:

Astronomy

Apr. 04, 2014 Rise Set
Actual Time 6:33 AM PDT 7:21 PM PDT
Civil Twilight 6:05 AM PDT 7:49 PM PDT
Nautical Twilight 5:33 AM PDT 8:21 PM PDT
Astronomical Twilight 4:59 AM PDT 8:55 PM PDT
Moon 9:54 AM PDT (4/4) No Moon Set
Length of Visible Light 13h 43m
Length of Day
12h 48m
Waxing Crescent, 26% of the Moon is Illuminated
Apr 4
Waxing Crescent
Apr 7
First Quarter
Apr 15
Full
Apr 22
Last Quarter
Apr 28
New

Hourly Weather History & Observations

Time (PDT) Temp. Windchill Dew Point Humidity Pressure Visibility Wind Dir Wind Speed Gust Speed Precip Events Conditions
12:53 AM 37.0 °F - 23.0 °F 57% 29.97 in 10.0 mi Calm Calm - N/A   Mostly Cloudy
1:53 AM 35.1 °F 31.0 °F 23.0 °F 61% 29.96 in 10.0 mi North 4.6 mph - N/A   Scattered Clouds
2:53 AM 32.0 °F - 21.9 °F 66% 29.96 in 10.0 mi Calm Calm - N/A   Overcast
3:53 AM 30.0 °F 26.5 °F 19.9 °F 66% 29.96 in 10.0 mi SSW 3.5 mph - N/A   Overcast
4:53 AM 28.9 °F - 19.9 °F 69% 29.96 in 10.0 mi Calm Calm - N/A   Partly Cloudy
5:53 AM 28.9 °F 21.9 °F 21.0 °F 72% 29.96 in 10.0 mi West 6.9 mph - N/A   Scattered Clouds
6:53 AM 30.0 °F - 21.0 °F 69% 29.97 in 10.0 mi Calm Calm - N/A   Overcast
7:53 AM 36.0 °F 31.1 °F 25.0 °F 64% 29.97 in 10.0 mi ENE 5.8 mph - N/A   Scattered Clouds
8:53 AM 43.0 °F 38.8 °F 28.0 °F 56% 29.96 in 10.0 mi ENE 6.9 mph - N/A   Clear
9:53 AM 50.0 °F - 28.0 °F 43% 29.94 in 10.0 mi NE 13.8 mph - N/A   Clear
10:53 AM 53.1 °F - 26.1 °F 35% 29.94 in 10.0 mi NNE 6.9 mph - N/A   Clear
11:53 AM 53.1 °F - 19.9 °F 27% 29.91 in 10.0 mi SSE 3.5 mph - N/A   Partly Cloudy
12:53 PM 54.0 °F - 19.9 °F 26% 29.89 in 10.0 mi Variable 4.6 mph - N/A   Scattered Clouds
1:53 PM 55.0 °F - 19.9 °F 25% 29.87 in 10.0 mi Calm Calm - N/A   Overcast
2:53 PM 55.9 °F - 18.0 °F 23% 29.86 in 10.0 mi Variable 3.5 mph - N/A   Mostly Cloudy
3:23 PM 55.9 °F - 21.9 °F 27% 29.85 in 10.0 mi NW 11.5 mph - N/A   Mostly Cloudy
3:53 PM 57.0 °F - 19.9 °F 24% 29.84 in 10.0 mi NNE 8.1 mph 17.3 mph N/A   Clear
4:53 PM 55.9 °F - 18.0 °F 23% 29.84 in 10.0 mi North 3.5 mph - N/A   Clear
5:53 PM 54.0 °F - 21.9 °F 29% 29.86 in 10.0 mi NW 16.1 mph - N/A   Clear
6:53 PM 54.0 °F - 19.0 °F 25% 29.86 in 10.0 mi NNE 6.9 mph - N/A   Clear
7:53 PM 46.9 °F - 23.0 °F 39% 29.88 in 10.0 mi WNW 10.4 mph - N/A   Clear
8:53 PM 46.9 °F - 28.0 °F 48% 29.89 in 10.0 mi NNW 18.4 mph - N/A   Clear
9:53 PM 46.0 °F 39.6 °F 28.9 °F 51% 29.90 in 10.0 mi NNW 15.0 mph - N/A   Clear
10:53 PM 43.0 °F 38.2 °F 28.9 °F 58% 29.93 in 10.0 mi NE 8.1 mph - N/A   Mostly Cloudy
11:53 PM 39.9 °F 35.1 °F 28.9 °F 65% 29.94 in 10.0 mi NE 6.9 mph - N/A   Clear